User: anonymous   Login
Location: Unspecified
(0.0000°N, 0.0000°E)
Time: 21:38:20
(UTC+00:00)
Language:

Tiros N - Orbit

View from above orbital plane
View from above orbital plane
View from above satellite
View from above satellite

Ground track
Ground track

The orbit data is extracted from the following two-line orbital elements,

1 11060U 78096A   19290.80453038 +.00000002 +00000-0 +22317-4 0  9991
2 11060 098.7768 346.9205 0011500 064.2798 295.9563 14.18246232333592
Epoch (UTC): 17 October 2019 19:18:31
Eccentricity: 0.0011500
inclination: 98.7768°
perigee height: 823 km
apogee height: 839 km
right ascension of ascending node: 346.9205°
argument of perigee: 64.2798°
revolutions per day: 14.18246232
mean anomaly at epoch: 295.9563°
orbit number at epoch: 33359

The dashed part of the orbit path shows where the satellite is in the earth's shadow,  

DLR